www.pogodaiklimat.ru

Погода и климат >> Архив погоды >> Украина >> Ясиня


ПОГОДА в Ясине

  • Прогноз погоды в Ясине
  • Монитор погоды в Ясине

АРХИВ ПОГОДЫ в Ясине

Время (UTC), дата Ветер
(напр.,м/с)
 
Видим.   Явления Облачность Т
(С)
Тd
(С)
f
(%)
Тe
(С)
Тes
(С)
Комфортность P
(гПа)
Po
(гПа)
Тmin
(С)
Tmax
(С)
R
(мм)
R24
(мм)
S
(см)
21 10.06 штиль 0 10 км ясно +16.8 +15.1 90 +17 +17 1018.9 934.8
00 11.06 штиль 0 10 км ясно +15.5 +13.5 88 +15 +15 1018.6 934.1
03 11.06 ЮЗ 1 10 км ясно +15.1 +13.5 90 +16 +16 1018.2 933.7
06 11.06 штиль 0 10 км 1/0 600 м
[Ci fib]
+20.3 +15.9 76 +23 +31 комфорт 1017.5 934.5 +15.0
09 11.06 Ю 2 10 км 3/3 600 м
[Cu med, cong]
+25.3 +17.8 63 +30 +41 душно 1015.9 934.3
12 11.06 СВ 3 10 км 3/3 600 м
[Cu med, cong]
+27.7 +14.7 45 +30 +40 жарко 1014.1 933.3
15 11.06 СВ 2 10 км гроза без осадков 6/4 600 м
[Cb calv Ci]
+26.9 +14.4 46 +29 +33 жарко 1013.9 932.9
18 11.06 ЮЗ 2 10 км {гроза} 5/3 600 м
[Sc Ci fib]
+20.7 +16.0 74 +25 +25 комфорт 1016.6 933.7 +26.5
21 11.06 ЮЗ 2 10 км ясно +16.9 +14.5 86 +17 +17 1017.8 933.8
00 12.06 штиль 0 10 км ясно +15.2 +14.3 94 +15 +15 1017.7 933.2
03 12.06 ЮЗ 2 10 км 1/0 600 м
[Ci fib]
+14.9 +12.7 87 +15 +15 1018.2 933.6
06 12.06 ЮЗ 2 10 км ясно +20.3 +15.1 72 +24 +30 комфорт 1016.8 933.8 +14.5
09 12.06 СВ 3 10 км 3/3 600 м
[Cu med, cong Ci ing]
+27.4 +13.4 42 +29 +39 жарко 1014.7 933.8
12 12.06 СВ 3 10 км {гроза} 4/3 600 м
[Cb calv Ac cuf Ci ing]
+28.1 +15.1 45 +31 +40 душно 1013.4 932.8
15 12.06 СВ 2 10 км в посл. час гроза 8/4 600 м
[Cb cap Ac cuf Ci ing]
+27.1 +17.4 55 +31 +33 душно 1013.5 932.6
18 12.06 ЮЗ 1 10 км {гроза} 3/0
[Cs]
+20.0 +16.5 80 +24 +24 комфорт 1016.0 933.0 +28.2
21 12.06 ЮЗ 1 10 км 1/0
[Ci fib]
+17.4 +14.8 85 +18 +18 1016.8 933.0
00 13.06 З 2 10 км 1/0
[Ci fib]
+15.9 +13.7 87 +16 +16 1017.8 933.5
03 13.06 ЮЗ 1 10 км ясно +14.6 +12.8 89 +15 +15 1017.7 933.1
06 13.06 ЮЗ 2 10 км ясно +20.4 +15.5 73 +24 +30 комфорт 1016.5 933.6 +14.4
09 13.06 ЮЗ 2 10 км ясно +27.4 +15.7 49 +30 +47 жарко 1014.9 934.0
12 13.06 ЮЗ 2 10 км 3/3 600 м
[Cu med, cong]
+28.4 +14.8 43 +31 +42 душно 1014.5 933.8
15 13.06 ЮЗ 2 10 км гроза без осадков 6/6 600 м
[Cb calv]
+27.7 +16.6 51 +31 +34 душно 1014.6 933.8
18 13.06 ЮЗ 2 10 км {гроза} ясно +21.4 +14.0 63 +24 +24 комфорт 1016.0 933.4 +28.8
21 13.06 ЮЗ 2 10 км ясно +17.5 +14.6 83 +18 +18 1017.8 934.0
00 14.06 ЮЗ 2 10 км ясно +16.3 +14.6 90 +16 +16 1018.9 934.6
03 14.06 ЮЗ 2 10 км ясно +15.1 +12.7 86 +15 +15 1018.8 934.2
06 14.06 З 2 10 км ясно +20.7 +13.6 64 +24 +31 комфорт 1018.1 935.1 +15.0
09 14.06 ЮЗ 3 10 км 3/3 600 м
[Cu med, cong]
+27.4 +14.9 46 +30 +40 жарко 1016.8 935.7
12 14.06 ЮЗ 3 10 км 4/4 600 м
[Cb calv]
+28.9 +15.2 43 +31 +40 жарко 1016.3 935.6
15 14.06 штиль 0 10 км 8/4 600 м
[Cu med, cong Ci ing]
+24.7 +16.2 59 +28 +32 душно 1017.3 935.5
18 14.06 штиль 0 10 км 8/8 600 м
[Cu Sc]
+21.5 +16.4 73 +25 +25 комфорт 1018.8 936.0 +29.3
21 14.06 штиль 0 10 км 4/4 600 м
[Sc]
+18.2 +14.8 81 +18 +18 1020.0 936.2
00 15.06 штиль 0 10 км 3/3 600 м
[Sc]
+16.7 +14.8 89 +17 +17 1019.9 935.7
03 15.06 ЮЗ 2 10 км ясно +15.3 +13.9 91 +15 +15 1019.6 935.0
06 15.06 ЮЗ 2 10 км ясно +20.1 +15.4 74 +23 +30 комфорт 1018.1 935.0 +15.0
12 15.06 СВ 2 10 км 3/3 600 м
[Cu med, cong]
+28.7 +15.9 46 +32 +43 душно 1013.7 933.2
18 15.06 СВ 1 10 км 3/1 600 м
[Cu hum Ci fib]
+23.5 +17.7 70 +28 +28 душно 1014.2 932.3 +29.0
00 16.06 штиль 0 10 км 1/0
[Ci fib]
+16.4 +14.1 86 +16 +16 1015.1 931.2
06 16.06 ЮЗ 2 10 км ясно +21.9 +16.4 71 +26 +33 душно 1013.9 931.6 +15.9
12 16.06 СВ 2 10 км 3/3 600 м
[Cb calv]
+29.5 +15.4 42 +32 +43 душно 1011.2 931.1
18 16.06 штиль 0 10 км 9/3 600 м
[Sc Ac As]
+22.6 +18.0 75 +28 +28 душно 1013.0 930.9 +29.8
00 17.06 ЮЗ 1 10 км 9/8 600 м
[Cu Sc Ac As]
+19.4 +15.9 80 +22 +22 комфорт 1016.6 933.4
06 17.06 штиль 0 10 км 4/4 600 м
[Sc]
+20.4 +15.9 75 +23 +28 комфорт 1016.9 933.9 +16.5
18 17.06 ЮЗ 2 10 км {гроза, ливн. осадки} 10/10 600 м
[Sc]
+19.3 +17.8 91 +22 +22 комфорт 1018.3 934.9 +24.0 1

 

Местоположение метеостанции Ясиня (Закарпатская область, Украина): широта 48.27 долгота 24.37 высота над уровнем моря 731 м.

В архиве по умолчанию представлена погода в Ясине за последнюю неделю. Архивные данные за месяц целиком и за предыдущие месяцы, начиная с января 2011 года, Вы можете получить, выбрав интересующий диапазон дат из раскрывающегося списка и нажав кнопку "Ввод!".


*Определитесь, кто Вы:
робот инопланетянин человек

Внимание! Время в таблицах - всемирное. Для получения местного времени необходимо прибавить поправку, которая равна 2 ч.

Смотрите также архив погоды в соседних городах и на ближайших метеорологических станциях:

Погода на Пожежевской (Ивано-Франковская область, Украина) (16 км)
Погода в Рахове (Закарпатская область, Украина) (25 км)
Погода в Сигету-Мармацией (Румыния) (50 км)
Погода в Коломые (Ивано-Франковская область, Украина) (57 км)
Погода в Окна Сугатаг (Румыния) (68 км)
Погода в Хусте (Закарпатская область, Украина) (69 км)
Погода в Селятине (Черновицкая область, Украина) (77 км)
Погода в Иезере (Румыния) (77 км)
Погода в Ивано-Франковске (Ивано-Франковская область, Украина) (82 км)
Погода в Долине (Ивано-Франковская область, Украина) (82 км)

Пояснения к столбцам:

Ветер - указаны скорость ветра в м/с - средняя за 10 мин, порывы в срок и между сроками (в фигурных скобках) и направление, откуда дует ветер: С - северный, СВ - северо-восточный, В - восточный, ЮВ - юго-восточный, Ю - южный, ЮЗ - юго-западный, З - западный, СЗ - северо-западный.
Видимость - горизонтальная дальность видимости в метрах или километрах. При видимости от 1 до 10 км при отсутствии осадков обычно наблюдается дымка, при ухудшении видимости до 1 км и менее - туман. В сухую погоду видимость может ухудшаться дымом, пылью или мглою.
Явления - указаны атмосферные явления, наблюдавшиеся в срок или в последний час перед сроком; фигурными скобками обозначены явления, наблюдавшиеся между сроками (за 1-3 часа до срока); квадратными скобками обозначены град или гололедные отложения с указанием их диаметра в мм.
Облачность - указаны через наклонную черту общая и нижняя облачность в баллах и высота нижней границы облаков в метрах; квадратными скобками обозначены формы облаков: Ci - перистые, Cs - перисто-слоистые, Cc - перисто-кучевые, Ac - высококучевые, As - высокослоистые, Sc - слоисто-кучевые, Ns - слоисто-дождевые, Cu - кучевые, Cb - кучево-дождевые. Подробнее классификацию облаков см. в Атласе облаков (PDF).
T - Температура воздуха - температура, измеренная на высоте 2 м над землей.
Td - Температура точки росы - температура, при понижении до которой содержащийся в воздухе водяной пар достигнет насыщения.
f - Относительная влажность воздуха - влажноcть воздуха, измеренная на высоте 2 м над землей.
Te - Эффективная температура - температура, которую ощущает одетый по сезону человек в тени. Характеристика душности погоды. При расчете учитывается влияние влажности воздуха и скорости ветра на теплоощущения человека.
Tes - Эффективная температура на солнце - температура, которую ощущает человек, с поправкой на солнечный нагрев. Характеристика знойности погоды. Зависит от высоты солнца над горизонтом, облачности и скорости ветра. Ночью, в пасмурную погоду, а также при ветре 12 м/с и более поправка равна нулю.
P - Атмосферное давление - приведенное к уровню моря атмосферное давление.
Po - Атмосферное давление - измеренное на уровне метеостанции атмосферное давление.
Tmin - Минимальная температура - минимум температуры воздуха на высоте 2 м над землей.
Tmax - Максимальная температура - максимум температуры воздуха на высоте 2 м над землей.
R - Количество осадков - Количество выпавших осадков за период времени, мм. При наведении курсора мыши на число - период времени, за который выпало указанное количество осадков.
R24 - Количество осадков - Количество выпавших осадков за 24 часа, мм.
S - Снежный покров - Высота снежного покрова, см. При наведении курсора мыши на число - состояние снежного покрова и степень покрытия местности в баллах.